• In Sweden
  • List of Countries
  • For 7 days
  • Water Temperature
  • Satellite Maps
  • Weather Map
  • Weather Widgets
  • user-avatar
    Login

    Hourly Weather Endogorovo

    Today, 26 September, Wednesday

    Time Temperature Precipitation Wind Pressure Humidity
    00:00 +4°C° 0 mm 4 mps 747 mmHg 84%
    01:00 +3°C° 0 mm 4 mps 748 mmHg 85%
    02:00 +3°C° 0 mm 4 mps 748 mmHg 85%
    03:00 +3°C° 0 mm 4 mps 749 mmHg 85%
    04:00 +1°C° 0 mm 4 mps 750 mmHg 86%
    05:00 +1°C° 0 mm 4 mps 750 mmHg 86%
    06:00 +1°C° 0 mm 4 mps 751 mmHg 87%
    07:00 +1°C° 0 mm 4 mps 751 mmHg 83%
    08:00 +3°C° 0 mm 4 mps 751 mmHg 80%
    09:00 +4°C° 0 mm 4 mps 752 mmHg 76%
    10:00 +5°C° 0 mm 4 mps 752 mmHg 70%
    11:00 +7°C° 0 mm 4 mps 752 mmHg 65%
    12:00 +9°C° 0 mm 5 mps 752 mmHg 60%
    13:00 +9°C° 0 mm 5 mps 751 mmHg 60%
    14:00 +10°C° 0 mm 5 mps 751 mmHg 61%
    15:00 +10°C° 0 mm 5 mps 751 mmHg 61%
    16:00 +9°C° 0 mm 5 mps 750 mmHg 64%
    17:00 +8°C° 0 mm 5 mps 749 mmHg 67%
    18:00 +8°C° 0 mm 5 mps 749 mmHg 70%
    19:00 +8°C° 0 mm 5 mps 748 mmHg 69%
    20:00 +7°C° 0 mm 6 mps 747 mmHg 67%
    21:00 +6°C° 0 mm 7 mps 746 mmHg 66%
    22:00 +6°C° 0.8 mm 7 mps 744 mmHg 72%
    23:00 +5°C° 0.8 mm 8 mps 743 mmHg 77%

    Tomorrow, 27 September, Thursday

    Time Temperature Precipitation Wind Pressure Humidity
    00:00 +5°C° 0.8 mm 9 mps 742 mmHg 83%
    01:00 +5°C° 1.6 mm 9 mps 740 mmHg 84%
    02:00 +5°C° 1.6 mm 9 mps 739 mmHg 85%
    03:00 +3°C° 1.6 mm 9 mps 737 mmHg 86%
    04:00 +5°C° 1 mm 8 mps 737 mmHg 87%
    05:00 +5°C° 1 mm 8 mps 736 mmHg 88%
    06:00 +5°C° 1 mm 7 mps 735 mmHg 89%
    07:00 +6°C° 0.4 mm 7 mps 735 mmHg 85%
    08:00 +6°C° 0.4 mm 7 mps 735 mmHg 81%
    09:00 +8°C° 0.4 mm 6 mps 735 mmHg 78%
    10:00 +8°C° 0.3 mm 7 mps 736 mmHg 74%
    11:00 +8°C° 0.3 mm 7 mps 736 mmHg 71%
    12:00 +9°C° 0.3 mm 8 mps 736 mmHg 68%
    13:00 +9°C° 0.2 mm 8 mps 736 mmHg 66%
    14:00 +9°C° 0.2 mm 8 mps 737 mmHg 64%
    15:00 +9°C° 0.2 mm 8 mps 737 mmHg 62%
    16:00 +8°C° 0.1 mm 7 mps 738 mmHg 65%
    17:00 +7°C° 0.1 mm 6 mps 738 mmHg 68%
    18:00 +7°C° 0.1 mm 5 mps 738 mmHg 70%
    19:00 +6°C° 0 mm 5 mps 739 mmHg 72%
    20:00 +6°C° 0 mm 5 mps 739 mmHg 73%
    21:00 +5°C° 0 mm 5 mps 739 mmHg 75%
    22:00 +5°C° 0 mm 5 mps 739 mmHg 75%
    23:00 +5°C° 0 mm 5 mps 740 mmHg 75%

    Day after tomorrow, 28 September, Friday

    Time Temperature Precipitation Wind Pressure Humidity
    00:00 +5°C° 0 mm 5 mps 740 mmHg 76%
    01:00 +5°C° 0 mm 5 mps 740 mmHg 76%
    02:00 +5°C° 0 mm 5 mps 739 mmHg 76%
    03:00 +5°C° 0 mm 5 mps 739 mmHg 76%
    04:00 +5°C° 1 mm 4 mps 738 mmHg 81%
    05:00 +5°C° 1 mm 4 mps 737 mmHg 86%
    06:00 +4°C° 1 mm 3 mps 736 mmHg 91%
    07:00 +5°C° 3.1 mm 3 mps 735 mmHg 92%
    08:00 +5°C° 3.1 mm 3 mps 734 mmHg 93%
    09:00 +7°C° 3.1 mm 3 mps 733 mmHg 95%
    10:00 +6°C° 1 mm 4 mps 733 mmHg 92%
    11:00 +7°C° 1 mm 4 mps 733 mmHg 89%
    12:00 +8°C° 1 mm 5 mps 733 mmHg 86%
    13:00 +7°C° 0 mm 5 mps 734 mmHg 83%
    14:00 +7°C° 0 mm 5 mps 735 mmHg 80%
    15:00 +6°C° 0 mm 5 mps 736 mmHg 78%
    16:00 +6°C° 0 mm 5 mps 737 mmHg 76%
    17:00 +5°C° 0 mm 5 mps 738 mmHg 75%
    18:00 +3°C° 0 mm 5 mps 740 mmHg 74%
    19:00 +3°C° 0 mm 5 mps 740 mmHg 74%
    20:00 +2°C° 0 mm 5 mps 741 mmHg 74%
    21:00 +3°C° 0 mm 4 mps 742 mmHg 75%
    22:00 +1°C° 0 mm 5 mps 742 mmHg 75%
    23:00 +1°C° 0 mm 5 mps 743 mmHg 75%

    29 September, Saturday

    Time Temperature Precipitation Wind Pressure Humidity
    00:00 +1°C° 0 mm 5 mps 743 mmHg 75%
    01:00 +1°C° 0 mm 5 mps 744 mmHg 75%
    02:00 0°C° 0 mm 5 mps 744 mmHg 75%
    03:00 0°C° 0 mm 5 mps 745 mmHg 75%
    04:00 0°C° 0 mm 5 mps 746 mmHg 75%
    05:00 -1°C° 0 mm 5 mps 746 mmHg 75%
    06:00 -1°C° 0 mm 5 mps 747 mmHg 76%
    07:00 0°C° 0 mm 5 mps 747 mmHg 72%
    08:00 +1°C° 0 mm 5 mps 748 mmHg 68%
    09:00 +1°C° 0 mm 6 mps 748 mmHg 65%
    10:00 +2°C° 0 mm 6 mps 749 mmHg 61%
    11:00 +3°C° 0 mm 6 mps 750 mmHg 58%
    12:00 +4°C° 0 mm 6 mps 750 mmHg 54%
    13:00 +6°C° 0 mm 5 mps 750 mmHg 54%
    14:00 +6°C° 0 mm 5 mps 751 mmHg 53%
    15:00 +6°C° 0 mm 5 mps 751 mmHg 52%
    16:00 +5°C° 0 mm 4 mps 751 mmHg 57%
    17:00 +4°C° 0 mm 3 mps 752 mmHg 61%
    18:00 +4°C° 0 mm 2 mps 752 mmHg 66%
    19:00 +3°C° 0 mm 2 mps 752 mmHg 68%
    20:00 +3°C° 0 mm 2 mps 753 mmHg 71%
    21:00 +2°C° 0 mm 2 mps 753 mmHg 74%
    22:00 +1°C° 0 mm 2 mps 754 mmHg 75%
    23:00 +1°C° 0 mm 2 mps 754 mmHg 76%

    30 September, Sunday

    Time Temperature Precipitation Wind Pressure Humidity
    00:00 -1°C° 0 mm 2 mps 754 mmHg 78%
    01:00 -1°C° 0 mm 2 mps 754 mmHg 78%
    02:00 -1°C° 0 mm 2 mps 755 mmHg 79%
    03:00 -2°C° 0 mm 2 mps 755 mmHg 80%
    04:00 -2°C° 0 mm 2 mps 755 mmHg 81%
    05:00 -2°C° 0 mm 2 mps 755 mmHg 81%
    06:00 -2°C° 0 mm 2 mps 755 mmHg 82%
    07:00 -1°C° 0 mm 2 mps 755 mmHg 77%
    08:00 +1°C° 0 mm 3 mps 755 mmHg 72%
    09:00 +2°C° 0 mm 3 mps 755 mmHg 67%
    10:00 +3°C° 0 mm 4 mps 755 mmHg 61%
    11:00 +5°C° 0 mm 4 mps 755 mmHg 55%
    12:00 +6°C° 0 mm 4 mps 755 mmHg 50%
    13:00 +7°C° 0 mm 5 mps 754 mmHg 50%
    14:00 +7°C° 0 mm 5 mps 754 mmHg 50%
    15:00 +7°C° 0 mm 5 mps 753 mmHg 50%
    16:00 +6°C° 0 mm 4 mps 753 mmHg 56%
    17:00 +5°C° 0 mm 4 mps 753 mmHg 61%
    18:00 +4°C° 0 mm 3 mps 752 mmHg 67%
    19:00 +5°C° 0 mm 4 mps 752 mmHg 68%
    20:00 +5°C° 0 mm 4 mps 752 mmHg 70%
    21:00 +5°C° 0 mm 4 mps 752 mmHg 71%
    22:00 +5°C° 0 mm 4 mps 752 mmHg 71%
    23:00 +5°C° 0 mm 4 mps 751 mmHg 71%

    1 October, Monday

    Time Temperature Precipitation Wind Pressure Humidity
    00:00 +5°C° 0 mm 4 mps 751 mmHg 70%
    01:00 +4°C° 0 mm 4 mps 751 mmHg 71%
    02:00 +4°C° 0 mm 4 mps 751 mmHg 72%
    03:00 +4°C° 0 mm 4 mps 751 mmHg 73%
    04:00 +4°C° 0 mm 4 mps 750 mmHg 75%
    05:00 +4°C° 0 mm 4 mps 750 mmHg 78%
    06:00 +3°C° 0 mm 4 mps 750 mmHg 80%
    07:00 +4°C° 0 mm 4 mps 750 mmHg 78%
    08:00 +4°C° 0 mm 4 mps 750 mmHg 77%
    09:00 +5°C° 0 mm 5 mps 750 mmHg 76%
    10:00 +6°C° 0 mm 5 mps 750 mmHg 74%
    11:00 +7°C° 0 mm 5 mps 750 mmHg 72%
    12:00 +8°C° 0 mm 5 mps 750 mmHg 70%
    13:00 +8°C° 0 mm 5 mps 750 mmHg 68%
    14:00 +9°C° 0 mm 5 mps 750 mmHg 67%
    15:00 +9°C° 0 mm 5 mps 750 mmHg 65%
    16:00 +10°C° 0 mm 4 mps 750 mmHg 68%
    17:00 +8°C° 0 mm 4 mps 750 mmHg 71%
    18:00 +9°C° 0 mm 3 mps 750 mmHg 74%
    19:00 +8°C° 0 mm 3 mps 750 mmHg 76%
    20:00 +8°C° 0 mm 3 mps 750 mmHg 77%
    21:00 +7°C° 0 mm 3 mps 750 mmHg 79%
    22:00 +7°C° 0 mm 3 mps 750 mmHg 82%
    23:00 +5°C° 0 mm 3 mps 750 mmHg 84%
    Show more